GFSFLT2_sfc_temp_057.txt.gz
Temp
67 67 71 69 68 70 70 71 72 72 72 73 72 72 72 73 73 72 72 72 71 70 70 70 69 69 68 66 66 68 75 75
67 66 64 64 68 67 68 70 71 71 71 71 71 71 71 71 71 71 71 71 71 70 70 69 69 68 67 66 65 68 74 75
64 64 62 63 64 64 68 68 70 70 71 70 70 75 75 74 72 70 70 69 70 70 69 68 67 67 66 66 67 74 74 75
62 62 62 62 63 63 64 66 69 69 71 72 73 72 74 74 71 68 68 69 69 69 68 67 70 73 71 67 73 73 74 74
62 61 61 63 62 63 62 61 64 68 70 71 71 72 72 71 72 73 72 70 74 71 70 74 72 73 72 72 72 72 74 74
61 61 62 64 65 63 60 61 63 65 69 70 70 70 68 70 71 72 71 72 70 71 71 68 70 71 71 70 71 72 73 74
60 62 63 64 63 64 60 61 62 63 67 69 68 67 67 70 70 71 72 71 71 69 70 70 70 70 70 70 69 70 70 73
60 61 62 63 63 64 62 61 61 63 66 67 67 67 67 70 70 70 70 71 71 71 69 70 70 70 68 69 69 70 70 70
60 60 62 60 63 61 64 61 61 61 66 68 68 69 67 69 70 68 70 70 70 68 68 69 69 70 68 68 69 68 69 69
61 61 60 60 60 60 63 62 61 61 65 67 68 70 68 67 69 69 70 69 70 69 68 68 68 69 67 68 68 68 68 68
60 59 59 62 62 60 63 64 64 63 64 64 66 67 67 70 70 67 68 69 68 68 67 67 65 66 67 68 67 67 66 68
59 60 59 61 60 60 61 62 64 65 64 67 68 69 69 68 67 67 68 68 67 67 65 66 66 66 66 63 62 64 64 65
59 58 59 59 58 58 58 58 60 64 68 68 66 69 68 66 66 66 67 67 65 66 66 64 63 63 63 62 64 62 63 66
60 58 59 59 59 60 61 60 57 63 67 67 68 68 69 67 66 65 65 66 64 64 65 63 65 63 64 63 62 64 64 64
60 59 59 60 61 60 59 59 57 57 61 64 67 66 68 68 67 65 64 64 65 62 64 64 63 62 64 66 59 59 63 63
61 61 59 60 60 60 57 59 57 62 60 62 63 63 64 66 64 62 61 61 63 62 64 63 63 62 61 62 62 64 61 59
61 61 59 60 61 63 60 59 59 62 60 58 63 64 63 64 62 63 63 62 64 63 62 61 62 62 62 60 59 53 54 58
59 61 60 60 60 61 60 59 58 57 57 57 57 59 60 60 60 60 63 65 65 65 64 63 62 63 63 58 54 51 53 54
58 60 60 61 61 62 62 61 60 58 59 59 59 58 60 61 62 61 65 65 65 65 64 63 63 62 63 61 55 54 55 55
57 59 60 61 61 61 62 64 64 64 64 65 64 63 65 67 63 64 64 65 66 65 65 64 63 62 62 58 55 55 57 58

GFSFLT2_sfc_temp_060.txt.gz
Temp
72 70 71 71 72 71 71 72 72 72 73 73 73 72 72 73 73 73 72 72 71 70 70 70 69 69 68 67 68 71 83 82
69 67 68 66 66 67 71 72 71 71 72 72 71 71 72 72 72 72 71 71 70 70 69 69 69 68 67 67 68 70 83 83
70 67 67 65 65 67 71 71 70 71 71 70 70 78 77 74 74 70 70 69 69 69 69 68 67 67 67 67 68 82 82 82
67 65 66 65 64 64 67 68 69 71 72 76 80 77 76 78 73 69 69 69 69 68 67 67 71 77 75 69 82 80 82 81
67 66 66 66 64 64 63 65 64 66 68 73 75 75 75 77 76 75 75 71 76 74 73 80 79 79 78 80 78 79 81 80
65 70 67 66 65 63 63 63 64 64 66 71 71 72 72 76 78 78 76 79 77 77 79 79 78 78 78 77 78 80 81 80
65 65 65 65 63 62 61 61 63 64 65 70 73 74 71 77 78 78 79 81 79 79 79 77 77 77 78 77 77 78 78 80
63 63 65 67 66 64 61 61 63 63 64 72 73 73 73 76 75 78 79 80 81 80 78 78 78 78 77 77 77 77 78 78
63 62 65 68 67 63 63 61 62 62 64 72 72 72 72 74 76 76 79 80 79 79 78 79 79 79 76 77 77 76 77 76
64 63 63 67 68 62 64 61 61 63 65 72 71 70 70 71 73 75 77 78 78 78 78 77 77 78 76 77 77 76 75 75
61 62 61 61 61 61 63 61 61 61 65 74 74 72 72 72 73 73 76 77 76 77 76 77 75 76 76 76 76 76 75 75
62 61 61 62 61 60 62 62 61 61 62 68 73 76 74 74 75 73 76 76 76 76 74 75 75 75 76 74 74 74 75 74
60 59 60 60 58 59 59 60 61 60 62 66 70 75 74 74 75 74 76 76 75 73 72 71 72 74 72 70 70 71 70 72
62 59 60 59 63 61 62 64 63 62 63 65 70 73 74 72 70 73 74 75 73 71 70 71 73 72 70 71 65 68 71 72
68 65 60 60 61 63 62 61 58 60 61 65 68 74 74 73 69 74 73 73 71 70 70 69 69 69 71 71 67 65 72 73
69 67 64 62 62 61 61 58 60 61 65 66 71 71 72 73 70 73 71 71 71 71 71 69 71 68 67 70 72 70 67 62
66 68 65 61 62 62 60 59 61 64 64 66 69 66 69 69 69 71 69 69 69 69 67 65 69 68 70 70 68 69 66 60
66 65 65 61 61 62 61 61 60 60 60 60 61 65 67 67 70 70 70 69 67 62 65 68 69 69 71 70 69 66 65 62
68 63 63 64 61 62 63 66 65 59 58 61 64 66 66 66 67 68 69 68 66 66 67 70 69 68 69 70 70 69 70 64
69 67 64 62 62 63 64 67 68 62 62 63 63 65 68 65 63 70 72 68 68 72 71 71 70 69 68 69 71 70 69 64

GFSFLT2_sfc_temp_063.txt.gz
Temp
75 76 70 67 66 67 69 71 72 72 73 73 73 72 73 73 73 73 72 71 70 70 70 70 70 69 69 68 69 71 83 81
72 72 68 69 67 66 66 68 70 71 72 72 71 72 72 72 72 71 71 70 70 70 69 69 69 68 68 68 69 71 83 82
72 70 70 68 68 66 66 68 69 70 71 70 70 79 76 76 73 70 70 69 69 69 68 68 67 67 68 68 68 84 84 81
70 70 69 70 69 68 66 66 68 71 76 77 82 78 79 79 72 69 68 68 68 68 67 66 70 76 76 70 80 83 82 79
70 70 72 70 66 66 66 64 67 71 72 77 79 76 77 74 73 73 71 71 74 72 71 76 78 78 78 80 80 82 82 79
72 73 73 70 67 63 64 63 64 66 68 70 69 71 73 76 73 75 74 76 74 74 76 80 79 79 80 78 80 82 81 77
67 71 70 71 69 67 64 64 62 63 64 66 68 69 75 75 73 75 76 78 76 76 79 79 79 79 79 79 79 80 79 78
69 68 70 69 67 67 66 63 64 64 63 64 65 71 71 73 72 75 77 79 79 79 80 79 79 79 78 78 79 79 80 78
66 66 65 65 65 63 62 62 62 62 63 64 65 70 71 75 77 78 79 81 80 81 79 79 79 80 77 78 79 78 79 79
65 66 64 66 66 64 63 61 62 62 62 63 67 71 72 73 76 77 79 79 80 79 79 78 79 78 77 77 78 78 77 78
65 64 65 65 66 65 63 61 61 61 62 64 70 73 72 73 75 77 78 78 77 78 78 78 76 77 77 78 78 78 76 78
65 64 64 63 63 62 63 61 61 61 62 66 71 71 71 71 74 74 76 73 71 75 76 77 77 77 79 77 77 77 77 76
64 62 61 60 60 61 60 59 59 60 62 67 71 71 73 73 73 71 72 71 71 73 75 73 74 76 75 74 74 74 74 75
62 61 60 59 61 62 64 61 59 61 61 63 70 72 75 74 74 71 71 74 73 72 71 72 74 74 71 70 65 69 71 72
68 62 60 60 60 61 62 61 60 58 59 60 64 67 75 74 72 72 71 73 70 70 72 72 71 72 72 70 65 65 69 72
72 68 62 62 62 62 61 63 60 64 61 61 62 63 72 72 67 66 71 72 71 70 73 71 71 68 70 70 71 70 62 61
72 68 66 64 64 62 62 62 64 65 64 63 64 64 67 66 68 66 65 71 70 69 69 69 71 65 67 68 68 69 69 64
72 68 67 65 62 62 62 61 64 61 62 62 64 66 67 68 68 66 64 65 67 68 68 68 68 69 66 70 68 67 66 65
72 70 66 65 62 62 63 63 63 63 63 62 62 64 66 68 68 68 67 65 66 68 68 68 69 67 68 68 69 68 71 70
74 70 70 65 62 62 62 64 65 66 64 64 63 65 68 68 68 69 70 69 65 67 69 69 69 68 68 69 68 69 71 70

GFSFLT2_sfc_temp_066.txt.gz
Temp
74 74 72 68 67 67 66 65 67 73 72 73 73 72 72 73 73 73 72 71 70 70 70 70 70 70 69 69 69 72 73 71
71 71 69 68 67 67 66 63 64 69 71 71 71 71 72 72 71 71 71 70 70 70 69 69 69 68 69 69 69 73 73 71
71 70 69 69 67 67 66 67 66 66 71 70 69 73 72 71 71 69 69 69 69 69 68 67 67 68 69 68 68 74 73 70
70 69 68 68 68 66 65 64 64 62 71 71 73 72 71 72 69 68 68 68 68 67 67 67 69 66 66 67 67 75 71 69
69 69 69 69 68 67 65 63 64 66 69 71 72 72 69 67 67 67 66 67 67 67 66 68 67 67 67 68 71 74 70 69
69 69 68 67 66 65 65 63 64 65 67 70 69 68 67 67 68 68 67 67 66 66 66 67 67 69 69 70 71 74 69 67
68 70 70 68 67 64 63 63 63 64 66 67 67 69 67 69 68 68 69 68 68 67 67 69 68 69 69 70 71 72 69 68
67 68 69 69 67 66 64 63 62 62 63 64 66 67 67 69 68 69 69 69 70 69 71 68 68 69 68 70 73 73 69 67
66 66 67 66 67 66 64 63 63 62 62 63 64 66 67 68 67 67 70 70 70 69 72 68 67 70 68 68 69 70 71 68
65 66 64 64 64 63 63 63 63 62 62 62 63 66 68 66 66 68 71 71 71 69 68 67 66 66 65 66 67 68 69 69
65 65 65 63 63 62 62 61 62 61 62 62 63 65 67 66 64 66 72 69 70 70 67 67 65 65 66 65 65 65 66 71
64 64 64 63 63 61 61 60 61 62 61 61 63 66 67 67 66 65 66 66 67 67 66 66 66 65 73 68 64 65 65 64
64 62 61 60 60 59 58 57 58 59 60 61 63 67 68 67 66 67 67 66 66 66 65 65 64 66 64 61 62 64 63 63
62 61 60 61 61 62 62 60 59 60 60 62 64 66 67 67 66 65 66 66 64 64 64 63 64 65 62 60 55 58 61 63
64 61 60 60 62 60 60 59 59 58 59 60 65 66 67 67 66 66 64 65 63 64 64 64 61 62 63 61 55 53 57 60
65 62 60 61 61 61 59 58 57 60 60 61 64 65 67 69 68 66 66 65 63 63 66 64 63 61 60 64 61 61 56 53
65 63 60 61 61 62 61 60 60 62 61 61 61 61 64 64 68 64 64 66 63 63 63 64 63 60 60 60 59 59 58 54
67 64 62 62 61 62 61 61 61 60 60 59 60 62 63 62 66 63 62 62 63 62 63 61 61 62 60 60 60 58 57 55
67 65 63 63 61 61 62 62 62 61 60 60 61 61 62 63 62 61 62 63 63 63 62 61 62 61 61 61 61 61 61 59
69 67 65 63 61 61 62 63 63 63 62 63 62 62 64 65 63 62 62 64 64 62 61 60 60 60 62 62 62 62 61 60

GFSFLT2_sfc_temp_072.txt.gz
Temp
68 68 69 69 69 69 69 71 71 69 69 71 72 71 72 73 73 73 73 72 72 71 71 70 71 70 69 68 67 67 65 65
66 66 64 64 65 67 67 69 67 67 67 66 67 69 70 71 72 72 71 71 71 71 70 70 69 69 68 67 67 67 62 61
64 64 65 64 64 66 68 68 68 67 67 66 66 66 70 71 70 70 70 69 69 69 69 69 68 69 68 67 67 65 64 63
63 63 63 64 65 65 64 66 65 65 64 65 63 61 68 69 69 69 68 68 68 68 68 68 67 67 68 67 65 65 64 62
63 62 62 64 63 63 62 61 62 61 63 63 61 63 66 67 66 67 66 67 65 66 66 65 63 62 65 64 64 64 64 64
62 62 62 60 61 61 60 61 60 60 61 63 62 64 65 66 66 65 65 65 62 62 61 61 61 63 66 64 63 63 62 63
62 62 63 63 62 60 60 59 60 60 61 62 65 66 66 66 65 63 64 63 63 60 60 60 62 64 66 64 62 62 62 62
61 62 64 64 60 60 61 61 62 61 60 62 64 67 66 65 64 61 61 61 62 63 60 60 61 63 65 64 63 62 62 61
60 61 64 62 60 60 61 60 62 62 63 63 64 66 63 62 61 61 61 61 59 58 58 59 60 62 65 64 63 62 62 61
60 63 60 60 60 60 61 62 62 63 64 64 64 65 64 62 61 61 63 61 62 61 58 58 59 59 62 63 62 62 62 61
60 62 61 59 61 61 61 61 62 62 63 63 64 65 64 63 62 62 62 62 61 61 57 58 57 57 62 63 62 59 60 63
62 62 61 57 58 60 61 60 60 60 62 63 64 65 66 63 63 62 61 63 60 61 58 58 60 58 66 61 62 60 59 59
60 60 60 59 59 59 59 59 59 60 61 62 61 64 66 65 65 62 63 61 62 63 60 61 59 58 57 55 56 59 60 59
59 59 60 60 60 60 60 59 60 61 61 61 62 63 65 66 66 63 64 62 59 60 59 59 59 60 60 56 52 55 57 59
59 59 60 60 60 59 57 58 58 58 59 59 60 61 63 64 65 64 62 63 60 59 59 61 56 57 62 57 51 52 55 57
59 59 59 60 60 59 57 57 56 59 59 60 60 60 61 62 63 63 61 62 60 59 60 60 59 59 56 60 59 57 52 51
58 58 58 59 60 59 58 57 59 59 59 59 60 59 60 60 61 62 60 60 59 59 59 59 58 55 55 55 57 56 55 51
57 57 57 58 60 59 59 57 58 57 57 57 58 60 59 60 61 61 60 60 59 59 60 59 59 58 57 57 56 54 53 51
59 57 56 57 58 59 59 59 59 58 58 58 58 58 59 61 60 60 60 61 61 62 60 60 58 57 57 56 57 56 56 55
59 59 59 58 59 59 60 60 60 57 56 58 59 60 61 62 61 61 61 62 62 60 60 59 57 56 57 57 57 57 57 57

GFSFLT2_sfc_temp_075.txt.gz
Temp
67 68 71 71 70 70 70 70 72 72 71 70 70 70 71 72 73 73 73 72 72 71 71 70 70 69 68 67 67 68 65 68
65 65 65 66 67 67 68 69 68 68 67 65 65 68 70 71 72 72 71 71 71 70 70 70 70 68 68 67 66 66 62 63
64 63 63 63 66 67 68 69 67 68 67 66 65 66 67 68 69 70 70 69 70 70 69 69 68 68 67 66 66 63 62 61
64 64 62 62 65 66 66 66 66 66 66 66 66 66 66 68 67 69 68 68 68 69 68 68 68 66 66 66 63 62 61 60
63 64 63 63 63 63 64 65 64 64 64 64 64 63 65 66 66 66 65 68 67 67 65 66 66 64 62 62 62 62 59 60
63 62 63 63 63 62 61 63 63 62 62 64 61 60 63 66 65 64 64 64 62 64 62 64 64 64 63 62 61 61 58 60
63 63 61 60 60 61 60 61 61 62 62 62 61 62 63 65 65 64 64 64 62 62 61 64 63 63 62 62 61 61 60 60
62 63 64 61 62 60 61 60 61 61 61 62 62 64 65 66 65 63 63 63 61 61 61 61 63 63 61 61 62 61 59 58
60 63 62 61 61 60 61 61 62 60 61 61 63 64 65 65 65 61 60 60 60 58 59 60 61 63 61 62 62 61 59 58
60 62 60 59 58 60 61 61 61 62 61 61 62 64 66 64 63 60 60 58 58 60 59 59 59 62 60 61 61 62 60 58
59 59 58 59 58 60 61 61 62 62 63 62 63 63 64 62 61 61 59 59 59 59 55 59 57 58 59 58 57 59 60 62
59 59 59 60 60 60 60 60 61 62 63 63 61 62 62 61 61 59 59 60 55 56 57 56 57 59 63 58 55 56 59 59
59 58 57 59 59 59 58 58 59 60 62 63 62 61 61 62 62 59 61 59 59 58 56 57 54 55 54 53 53 54 55 56
59 58 58 60 60 60 60 59 59 60 61 61 63 61 61 63 63 61 62 61 57 57 58 56 58 58 56 55 50 54 55 57
58 57 57 59 61 59 58 58 59 58 59 60 61 63 62 61 64 63 62 62 60 60 59 61 57 55 59 56 50 50 52 54
59 60 58 58 59 59 58 58 57 59 60 60 60 62 63 62 62 62 63 61 60 59 59 61 60 58 54 58 58 56 52 49
61 60 61 59 57 59 58 57 58 58 59 59 59 59 60 61 61 59 59 60 60 59 57 57 57 58 55 53 55 54 54 51
59 58 58 58 57 57 57 58 57 55 57 58 58 58 57 59 59 60 60 59 58 58 58 58 56 57 60 56 55 54 52 52
58 57 57 58 57 56 55 56 57 57 57 58 57 58 58 57 59 59 59 60 59 58 57 57 57 56 56 56 58 56 55 55
59 57 57 59 59 58 56 56 59 59 58 58 58 59 60 61 59 59 60 60 59 59 58 58 57 56 56 57 57 58 57 56

GFSFLT2_sfc_temp_078.txt.gz
Temp
67 70 71 70 70 70 70 70 71 71 71 71 69 70 71 73 73 74 73 73 71 71 70 70 70 69 68 67 67 68 67 68
65 69 70 70 70 69 67 69 69 68 68 67 67 66 69 71 70 71 73 71 71 70 70 70 69 68 67 67 67 67 66 67
63 64 66 67 68 68 68 69 68 68 68 67 66 66 66 68 68 70 71 69 70 70 70 69 68 67 67 66 67 64 65 64
64 64 62 62 65 65 67 67 66 66 65 65 64 65 65 67 67 68 69 68 69 69 68 67 66 64 65 66 64 63 63 62
64 64 62 63 64 65 66 65 64 65 64 64 64 64 66 66 65 66 66 67 66 66 66 65 63 63 59 61 62 62 60 61
63 64 64 63 63 64 63 64 64 64 65 64 63 64 65 64 64 64 64 65 63 62 64 62 62 62 61 61 61 60 59 60
63 63 64 63 63 62 62 63 63 64 64 64 63 63 63 64 64 63 64 62 62 59 61 61 60 61 61 61 61 60 59 60
63 63 64 61 61 61 61 62 62 62 62 64 62 62 62 63 63 63 62 62 61 60 62 62 61 61 60 61 61 59 60 60
63 63 62 59 60 61 61 60 61 60 61 62 62 62 62 65 64 62 62 63 61 58 59 61 61 62 60 61 60 60 60 59
64 65 61 58 59 61 61 61 61 60 60 62 62 63 65 65 64 62 61 62 62 60 59 59 59 58 58 59 60 60 60 59
61 62 60 57 57 60 61 61 61 62 61 61 62 64 65 64 63 61 60 61 62 60 58 60 59 58 58 58 57 59 59 61
61 61 59 58 59 60 60 60 61 61 62 61 62 62 64 62 61 59 60 61 58 59 57 55 58 58 60 56 55 56 58 58
59 59 59 59 58 58 58 58 59 60 62 63 62 63 64 61 59 59 60 58 59 59 57 56 53 56 54 53 53 54 55 56
59 59 59 59 60 59 60 59 59 60 61 61 60 60 60 60 59 59 60 59 57 58 59 55 54 58 53 52 50 53 54 56
59 59 59 58 60 59 58 58 59 58 59 60 60 60 59 59 59 60 60 60 58 59 59 57 56 56 59 54 49 49 52 54
59 57 59 61 61 59 57 57 56 58 59 60 61 60 59 59 60 59 60 59 58 59 60 60 58 57 55 58 58 55 51 48
57 57 58 59 60 60 54 56 57 58 58 59 59 60 60 59 60 60 59 59 59 59 57 57 58 58 56 55 55 55 54 51
58 60 60 59 58 60 54 56 57 55 56 57 58 58 59 59 60 59 59 59 59 58 57 57 57 57 59 56 55 54 53 52
61 59 59 59 57 58 57 54 55 54 57 57 57 57 57 59 59 59 60 60 58 58 57 57 56 56 56 55 56 57 57 56
59 58 58 58 57 57 55 54 54 55 56 57 58 58 58 58 59 59 60 59 59 58 57 57 57 56 56 56 56 57 57 56

GFSFLT2_sfc_temp_084.txt.gz
Temp
79 79 78 71 71 71 71 71 72 72 72 72 73 73 73 72 72 73 72 73 73 72 71 71 71 70 69 69 69 71 82 80
75 75 77 77 77 70 70 71 71 69 71 68 69 71 70 70 70 70 69 71 72 71 70 70 69 69 68 68 68 71 84 84
79 75 75 76 78 77 71 71 70 70 70 69 69 78 75 69 70 70 71 70 71 70 69 69 67 67 68 68 69 82 82 82
82 75 76 76 78 77 77 79 78 78 78 75 79 78 75 74 72 69 70 69 69 68 68 67 69 77 76 70 81 81 82 83
78 74 75 80 77 75 73 71 73 75 76 73 74 77 76 75 77 71 74 71 69 68 69 76 76 77 77 78 80 81 85 85
75 74 74 77 75 73 72 69 69 71 74 75 72 73 77 78 73 77 72 68 68 67 75 75 76 78 77 78 80 83 83 84
75 76 75 72 71 71 69 68 68 70 73 74 72 73 76 77 77 75 70 66 66 66 73 74 75 77 79 79 79 80 80 82
78 77 76 78 78 72 68 69 69 70 72 74 71 71 74 74 74 70 69 66 66 67 71 73 76 79 78 79 78 79 78 79
77 75 75 77 78 77 73 69 71 69 69 70 69 71 71 73 73 71 68 69 64 66 71 75 78 80 77 78 78 78 78 78
78 75 74 74 76 76 75 69 69 69 69 69 68 68 68 67 67 68 69 66 66 64 71 76 76 77 75 77 78 77 76 76
77 73 74 74 74 73 73 68 66 66 66 67 67 68 67 66 69 69 68 65 68 63 68 76 75 76 76 77 77 77 75 78
78 74 75 73 68 69 71 68 66 65 64 64 64 65 67 67 66 66 65 65 63 63 67 73 76 75 76 74 75 75 74 73
77 71 73 69 67 67 66 67 66 65 67 66 67 65 64 65 64 64 63 62 62 63 69 70 71 74 71 67 70 70 70 71
75 71 70 71 73 72 69 67 67 70 71 73 72 69 68 64 62 62 62 62 61 61 66 67 70 73 69 68 58 64 67 69
72 70 72 71 74 70 71 69 66 65 68 70 67 65 64 64 63 61 62 61 59 60 65 68 68 72 73 70 60 62 65 68
72 71 74 70 72 70 69 70 64 70 65 65 67 65 63 62 62 62 61 61 60 60 66 70 72 68 71 73 75 76 67 62
72 69 71 70 68 73 71 70 69 72 64 63 62 60 61 60 60 60 60 60 60 61 65 69 71 70 70 70 71 73 73 71
67 66 67 68 68 73 70 69 69 68 62 60 60 60 60 59 58 59 59 59 59 61 68 68 69 70 70 70 69 67 69 69
63 64 64 65 72 73 69 69 69 66 62 59 59 59 58 59 59 57 58 59 60 60 63 66 67 68 68 69 70 69 71 70
62 63 63 64 72 70 66 70 69 66 65 65 63 61 60 60 59 60 59 59 59 61 61 63 66 66 66 67 68 70 70 70

GFSFLT2_sfc_temp_087.txt.gz
Temp
85 81 77 71 71 71 71 72 73 73 72 72 74 73 73 74 74 73 73 73 72 73 71 71 71 69 69 69 70 69 79 77
84 83 81 80 79 70 71 71 72 72 72 70 71 71 72 71 71 71 71 71 73 72 72 71 68 68 68 68 67 69 79 80
82 79 82 81 79 79 71 71 71 70 71 69 70 81 77 73 72 70 70 70 71 71 70 68 67 67 67 68 68 80 78 73
84 77 77 78 83 79 80 80 80 80 81 79 82 79 79 77 72 68 69 69 69 69 68 67 68 76 74 68 82 80 75 73
85 82 79 79 79 82 83 82 80 80 79 80 80 77 74 77 71 70 70 70 70 69 69 70 77 76 76 78 77 75 78 73
86 85 77 82 87 84 84 79 79 79 78 78 76 75 73 74 76 75 74 73 71 67 67 71 75 76 78 78 76 79 84 78
85 84 80 84 80 76 78 78 76 74 76 76 76 74 73 75 75 76 75 73 69 65 67 71 74 76 77 78 73 82 83 83
86 83 81 82 79 75 73 75 73 72 73 76 76 76 75 75 73 73 73 72 70 65 66 68 73 75 76 76 81 82 82 82
86 81 82 80 80 79 74 75 70 71 72 77 76 76 76 75 74 72 73 72 70 65 65 66 70 76 73 80 80 80 80 80
88 83 81 80 82 82 78 71 69 74 75 76 75 75 76 75 73 71 71 69 68 64 64 64 66 72 73 74 80 79 79 79
88 82 79 79 81 81 81 74 71 75 75 72 72 72 73 71 70 68 68 67 67 65 63 63 66 70 72 76 78 78 77 79
88 81 79 79 80 77 77 73 73 72 71 70 71 70 70 68 67 66 66 67 66 65 63 63 68 71 74 76 76 77 78 77
86 79 78 79 74 71 73 68 71 69 69 68 68 68 68 67 66 66 64 66 65 65 63 62 62 70 68 68 67 68 71 73
85 80 79 76 75 77 76 74 74 74 73 69 68 65 65 64 64 64 64 64 63 62 63 62 63 69 68 64 59 61 65 69
84 81 80 76 77 79 77 75 73 70 68 70 73 71 71 68 68 64 62 64 62 61 62 63 61 67 71 68 60 60 63 66
84 82 80 78 79 78 74 72 70 72 73 75 73 72 71 70 67 64 63 62 61 61 63 63 64 66 67 72 72 74 64 59
82 80 79 78 78 77 75 74 76 76 74 69 69 68 67 67 63 63 62 61 61 61 61 62 63 68 67 70 70 73 71 67
80 77 78 75 77 76 75 74 74 72 69 66 65 65 63 61 60 61 61 60 60 60 61 62 63 67 69 70 70 68 69 70
77 73 73 73 75 76 75 75 73 72 69 67 62 61 60 58 58 58 59 60 60 60 61 62 63 65 68 68 72 71 72 72
71 68 68 69 74 77 75 74 74 73 70 65 63 62 62 60 59 58 58 59 59 59 60 61 62 65 66 66 68 70 72 72

GFSFLT2_sfc_temp_090.txt.gz
Temp
77 75 74 72 71 72 72 72 74 73 73 73 73 73 73 74 74 74 72 71 70 70 71 71 70 69 70 69 67 68 70 70
78 77 75 74 73 70 71 72 72 72 73 71 70 72 72 72 72 72 71 70 70 70 72 71 69 68 68 67 67 70 69 73
79 77 76 76 76 73 71 72 71 71 71 70 68 74 73 72 72 71 71 70 71 71 70 68 68 68 67 67 67 72 70 69
78 76 77 76 79 74 74 74 73 73 74 72 74 74 74 74 70 69 68 69 70 69 68 68 68 68 66 66 68 68 69 69
79 75 76 76 77 76 76 76 75 74 74 74 74 73 71 72 70 68 67 68 67 68 67 67 69 70 69 70 69 70 68 70
81 77 75 76 79 77 77 77 75 74 74 74 72 70 69 70 70 69 66 67 67 67 66 67 68 70 70 70 70 73 69 71
81 79 75 77 77 78 76 75 74 74 73 73 71 70 68 70 71 71 70 68 67 66 66 67 68 69 70 70 71 70 71 71
81 80 76 78 78 74 73 73 73 72 72 72 72 70 69 69 69 69 68 67 68 66 65 65 65 67 69 70 71 71 72 70
79 77 77 76 76 73 72 72 72 72 71 72 71 71 69 69 68 67 68 67 66 64 64 64 64 67 68 71 72 72 74 69
79 80 77 76 74 74 72 71 71 71 70 70 71 72 70 69 67 67 68 66 65 63 63 63 63 64 66 65 69 72 70 70
78 77 76 75 75 76 73 70 70 70 70 71 71 71 71 68 67 67 67 66 64 63 62 63 61 62 62 69 68 70 68 72
79 77 76 76 76 75 74 70 69 70 69 70 70 70 70 68 66 66 66 64 63 63 63 62 62 62 64 69 70 66 67 65
78 76 75 75 74 72 71 68 69 66 68 68 68 69 67 66 65 65 65 64 64 63 62 61 60 62 60 59 63 65 65 65
78 76 75 74 75 72 72 70 69 68 67 67 67 68 66 65 64 63 63 63 63 63 62 60 60 61 59 60 55 58 62 64
79 77 75 75 74 73 72 70 69 67 66 67 66 66 66 65 64 63 63 63 63 63 62 61 59 60 62 63 55 53 56 61
81 78 75 74 73 73 70 67 66 67 67 68 67 67 65 65 65 64 63 63 62 62 63 62 61 58 59 66 65 63 56 53
78 78 77 73 72 73 71 68 68 68 68 67 67 66 67 66 65 65 63 62 62 63 61 61 61 60 60 61 62 62 64 58
76 76 76 74 73 73 70 68 68 68 66 64 63 62 62 62 62 62 62 62 61 62 62 61 61 61 61 62 63 60 60 61
76 76 74 74 73 72 70 70 69 67 66 64 62 60 59 59 60 59 60 61 61 61 61 61 61 60 60 62 65 65 65 64
75 74 73 71 72 71 72 71 69 68 67 65 62 62 60 60 58 58 59 60 60 60 60 60 60 60 60 61 65 63 63 63

GFSFLT2_sfc_temp_093.txt.gz
Temp
69 70 72 71 71 71 71 72 74 75 73 73 73 72 73 74 74 74 73 72 72 72 72 72 71 70 69 67 66 69 67 68
69 69 69 68 68 70 71 71 72 75 73 72 71 71 72 73 73 72 72 72 72 72 71 72 72 69 68 66 67 68 67 68
70 69 69 68 68 70 71 71 71 71 71 70 68 69 70 70 70 71 71 70 70 70 71 70 69 68 68 66 67 66 67 67
72 70 70 69 72 68 67 70 70 68 69 68 68 68 68 70 70 69 69 68 69 70 69 67 68 68 67 67 65 66 65 65
72 71 70 70 70 68 68 68 68 68 68 67 68 68 68 67 67 67 67 69 67 67 67 67 67 67 67 66 65 66 66 66
73 73 71 69 68 69 68 68 68 67 67 68 66 67 66 66 66 64 64 65 65 66 66 66 67 68 68 66 65 65 65 66
73 73 73 72 68 69 68 69 69 69 68 68 67 67 66 66 65 65 65 64 64 64 65 66 67 68 67 67 66 65 65 67
74 72 73 73 70 69 67 69 69 67 67 67 67 66 66 65 65 65 65 65 64 64 65 65 64 66 67 66 66 66 67 66
73 72 73 73 72 68 66 66 67 66 66 67 67 66 65 65 64 64 65 65 64 63 63 63 63 65 66 69 66 66 67 67
75 75 72 72 70 68 66 66 65 65 65 65 66 66 66 64 63 63 65 64 63 62 62 62 62 62 62 64 65 66 67 66
75 73 71 71 69 68 67 66 65 66 64 64 65 66 66 64 63 63 64 63 62 62 61 63 61 61 63 63 62 66 67 68
75 73 72 72 70 67 66 65 64 64 64 64 66 67 65 64 63 63 64 63 63 62 61 62 62 61 63 63 61 65 68 65
74 72 71 71 70 67 65 63 63 63 64 66 68 66 64 63 63 62 63 63 62 62 62 61 60 61 59 58 59 64 64 65
73 72 71 72 72 70 66 64 61 62 65 66 66 64 63 63 63 63 63 61 61 62 62 60 61 62 58 57 54 58 60 61
72 72 72 72 69 67 65 63 61 59 60 62 65 66 64 63 64 63 63 63 62 62 62 61 59 60 60 57 54 54 57 57
72 72 71 70 70 69 65 64 60 60 61 62 65 65 65 63 63 63 63 63 62 62 62 61 61 58 59 62 62 60 56 52
72 71 71 70 69 68 64 61 60 61 60 61 62 62 64 63 63 61 62 62 63 63 62 61 61 60 60 60 60 61 60 55
72 70 70 69 68 67 65 63 61 62 60 59 60 62 63 62 63 63 62 62 62 62 63 61 60 61 61 61 60 60 59 57
68 70 66 67 68 66 68 67 63 61 60 60 58 58 58 59 59 59 60 62 62 62 62 62 61 60 60 59 61 61 64 61
66 68 65 65 66 65 67 68 62 63 61 59 57 57 59 59 58 59 59 59 61 61 61 61 61 60 60 60 60 61 61 61